#timestamp,LO_Frequency,Hit,Temp,Hum 
1477962015.1,286047972.3,N,0.0,0.0
1477962016.0,286047972.3,N,0.0,0.0
1477962035.8,286047972.0,N,0.0,0.0
1477962055.7,286047971.0,N,0.0,0.0
1477962075.5,286047973.6,N,0.0,0.0
1477962095.3,286047971.7,N,0.0,0.0
1477962115.2,286047972.1,N,0.0,0.0
1477962135.9,286047969.5,N,0.0,0.0
1477962155.7,286047969.5,N,0.0,0.0
1477962175.6,286047970.2,N,0.0,0.0
1477962195.4,286047972.3,N,0.0,0.0
1477962215.2,286047971.3,N,0.0,0.0
1477962235.1,286047974.0,N,0.0,0.0
1477962236.0,286047974.0,N,0.0,0.0
1477962255.8,286047972.8,N,0.0,0.0
1477962275.6,286047974.4,N,0.0,0.0
1477962295.5,286047975.6,N,0.0,0.0
1477962315.3,286047973.3,N,0.0,0.0
1477962335.1,286047971.2,N,0.0,0.0
1477962355.9,286047973.0,N,0.0,0.0
1477962375.7,286047970.9,N,0.0,0.0
1477962395.6,286047971.0,N,0.0,0.0
1477962415.4,286047971.8,N,0.0,0.0
1477962435.2,286047973.9,N,0.0,0.0
1477962455.1,286047972.1,N,0.0,0.0
1477962456.0,286047972.1,N,0.0,0.0
1477962475.8,286047972.3,N,0.0,0.0
1477962495.6,286047970.3,N,0.0,0.0
1477962515.5,286047967.8,N,0.0,0.0
1477962535.3,286047972.4,N,0.0,0.0
1477962555.1,286047972.2,N,0.0,0.0
1477962575.9,286047969.8,N,0.0,0.0
1477962595.7,286047971.4,N,0.0,0.0
1477962615.5,286047971.3,N,0.0,0.0
1477962635.4,286047971.3,N,0.0,0.0
1477962655.2,286047971.7,N,0.0,0.0
1477962675.0,286047971.2,N,0.0,0.0
1477962675.9,286047971.2,N,0.0,0.0
1477962695.8,286047971.8,N,0.0,0.0
1477962715.6,286047971.3,N,0.0,0.0
1477962735.5,286047973.6,N,0.0,0.0
1477962755.3,286047971.4,N,0.0,0.0
1477962775.1,286047971.8,N,0.0,0.0
1477962795.9,286047967.8,N,0.0,0.0
1477962815.7,286047968.6,N,0.0,0.0
1477962835.5,286047968.4,N,0.0,0.0
1477962855.4,286047966.4,N,0.0,0.0
1477962875.2,286047972.0,N,0.0,0.0
1477962895.0,286047969.3,N,0.0,0.0
1477962895.9,286047969.3,N,0.0,0.0
1477962915.8,286047971.2,N,0.0,0.0
1477962935.6,286047972.0,N,0.0,0.0
1477962955.4,286047971.2,N,0.0,0.0
1477962975.3,286047971.1,N,0.0,0.0
1477962995.1,286047971.9,N,0.0,0.0
1477963015.8,286047971.4,N,0.0,0.0
1477963035.7,286047972.7,N,0.0,0.0
1477963055.5,286047972.7,N,0.0,0.0
1477963075.4,286047972.7,N,0.0,0.0
1477963095.2,286047973.7,N,0.0,0.0
1477963115.0,286047973.5,N,0.0,0.0
1477963115.9,286047973.5,N,0.0,0.0
1477963135.8,286047973.5,N,0.0,0.0
1477963155.6,286047972.8,N,0.0,0.0
1477963175.4,286047972.7,N,0.0,0.0
1477963195.3,286047973.5,N,0.0,0.0
1477963215.1,286047971.6,N,0.0,0.0
1477963235.8,286047972.3,N,0.0,0.0
1477963255.7,286047972.3,N,0.0,0.0
1477963275.5,286047969.4,N,0.0,0.0
1477963295.3,286047969.8,N,0.0,0.0
1477963315.2,286047972.0,N,0.0,0.0
1477963335.0,286047971.0,N,0.0,0.0
1477963335.9,286047971.0,N,0.0,0.0
1477963355.8,286047972.5,N,0.0,0.0
1477963375.6,286047974.4,N,0.0,0.0
1477963395.4,286047975.3,N,0.0,0.0
1477963415.3,286047972.8,N,0.0,0.0
1477963435.1,286047975.6,N,0.0,0.0
1477963436.0,286047975.6,N,0.0,0.0
1477963455.8,286047972.9,N,0.0,0.0
1477963475.7,286047972.6,N,0.0,0.0
1477963495.5,286047973.6,N,0.0,0.0
1477963515.3,286047973.2,N,0.0,0.0
1477963535.2,286047972.2,N,0.0,0.0
1477963555.0,286047969.7,N,0.0,0.0
1477963555.9,286047969.7,N,0.0,0.0
1477963575.7,286047969.8,N,0.0,0.0
1477963595.6,286047967.8,N,0.0,0.0
1477963615.4,286047968.5,N,0.0,0.0
1477963635.2,286047968.4,N,0.0,0.0
1477963655.1,286047970.6,N,0.0,0.0
1477963656.0,286047970.6,N,0.0,0.0
1477963675.8,286047972.3,N,0.0,0.0
1477963695.7,286047969.7,N,0.0,0.0
1477963715.5,286047973.2,N,0.0,0.0
1477963735.3,286047973.3,N,0.0,0.0
1477963755.2,286047972.0,N,0.0,0.0
1477963775.9,286047971.1,N,0.0,0.0
1477963795.7,286047973.3,N,0.0,0.0
1477963815.6,286047971.9,N,0.0,0.0
1477963835.4,286047965.2,N,0.0,0.0
1477963855.2,286047960.2,N,0.0,0.0
1477963875.1,286047962.0,N,0.0,0.0
1477963876.0,286047962.0,N,0.0,0.0
1477963895.8,286047970.5,N,0.0,0.0
1477963915.6,286047983.0,N,0.0,0.0
1477963935.5,286047982.9,N,0.0,0.0
1477963955.3,286047977.8,N,0.0,0.0
1477963975.2,286047976.5,N,0.0,0.0
1477963995.9,286047973.7,N,0.0,0.0
1477964015.7,286047974.2,N,0.0,0.0
1477964035.6,286047972.0,N,0.0,0.0
1477964055.4,286047970.9,N,0.0,0.0
1477964075.2,286047973.5,N,0.0,0.0
1477964095.1,286047971.7,N,0.0,0.0
1477964096.0,286047971.7,N,0.0,0.0
1477964115.8,286047971.4,N,0.0,0.0
1477964135.6,286047973.9,N,0.0,0.0
1477964155.5,286047973.5,N,0.0,0.0
1477964175.3,286047972.3,N,0.0,0.0
1477964195.1,286047973.8,N,0.0,0.0
1477964215.9,286047972.9,N,0.0,0.0
1477964235.7,286047970.7,N,0.0,0.0
1477964255.5,286047969.8,N,0.0,0.0
1477964275.4,286047969.5,N,0.0,0.0
1477964295.2,286047969.6,N,0.0,0.0
1477964315.1,286047969.2,N,0.0,0.0
1477964316.0,286047969.2,N,0.0,0.0
1477964335.8,286047970.1,N,0.0,0.0
1477964355.6,286047971.0,N,0.0,0.0
1477964375.5,286047971.2,N,0.0,0.0
1477964395.3,286047972.4,N,0.0,0.0
1477964415.1,286047967.8,N,0.0,0.0
1477964435.9,286047970.0,N,0.0,0.0
1477964455.7,286047972.4,N,0.0,0.0
1477964475.5,286047968.0,N,0.0,0.0
1477964495.4,286047967.9,N,0.0,0.0
1477964515.2,286047968.1,N,0.0,0.0
1477964535.0,286047970.3,N,0.0,0.0
1477964535.9,286047970.3,N,0.0,0.0
1477964555.8,286047972.4,N,0.0,0.0
1477964575.6,286047969.3,N,0.0,0.0
1477964595.5,286047969.8,N,0.0,0.0
1477964615.3,286047968.5,N,0.0,0.0
1477964635.1,286047967.1,N,0.0,0.0
1477964655.9,286047966.8,N,0.0,0.0
1477964675.7,286047968.9,N,0.0,0.0
1477964695.5,286047967.7,N,0.0,0.0
1477964715.4,286047968.6,N,0.0,0.0
1477964735.2,286047968.8,N,0.0,0.0
1477964755.0,286047966.1,N,0.0,0.0
1477964755.9,286047966.1,N,0.0,0.0
1477964775.8,286047968.3,N,0.0,0.0
1477964795.6,286047970.5,N,0.0,0.0
1477964815.4,286047970.8,N,0.0,0.0
1477964835.3,286047970.6,N,0.0,0.0
1477964855.1,286047967.7,N,0.0,0.0
1477964875.8,286047970.5,N,0.0,0.0
1477964895.7,286047967.9,N,0.0,0.0
1477964915.5,286047969.1,N,0.0,0.0
1477964935.4,286047972.9,N,0.0,0.0
1477964955.2,286047956.3,N,0.0,0.0
1477964975.0,286047969.9,N,0.0,0.0
1477964975.9,286047969.9,N,0.0,0.0
1477964995.8,286047968.1,N,0.0,0.0
1477965015.6,286047990.6,N,0.0,0.0
1477965035.4,286047969.2,N,0.0,0.0
1477965055.3,286047967.5,N,0.0,0.0
1477965075.1,286047965.4,N,0.0,0.0
1477965095.8,286047966.8,N,0.0,0.0
1477965115.7,286047973.8,N,0.0,0.0
1477965135.5,286047970.3,N,0.0,0.0
1477965155.3,286047968.3,N,0.0,0.0
1477965175.2,286047970.6,N,0.0,0.0
1477965195.0,286047970.0,N,0.0,0.0
1477965195.9,286047970.0,N,0.0,0.0
1477965215.8,286047970.8,N,0.0,0.0
1477965235.6,286047969.7,N,0.0,0.0
1477965255.4,286047967.9,N,0.0,0.0
1477965275.3,286047965.9,N,0.0,0.0
1477965295.1,286047962.9,N,0.0,0.0
1477965296.0,286047962.9,N,0.0,0.0
1477965315.8,286047967.4,N,0.0,0.0
1477965335.7,286047966.8,N,0.0,0.0
1477965355.5,286047966.7,N,0.0,0.0
1477965375.3,286047943.5,N,0.0,0.0
1477965395.2,286047939.0,N,0.0,0.0
1477965415.0,286047937.0,N,0.0,0.0
1477965415.9,286047937.0,N,0.0,0.0
1477965435.7,286047936.4,N,0.0,0.0
1477965455.6,286047938.5,N,0.0,0.0
1477965475.4,286047937.3,N,0.0,0.0
1477965495.3,286047937.5,N,0.0,0.0
1477965515.1,286047939.9,N,0.0,0.0
1477965516.0,286047939.9,N,0.0,0.0
1477965535.8,286047968.3,N,0.0,0.0
1477965555.7,286047970.2,N,0.0,0.0
1477965575.5,286047967.7,N,0.0,0.0
1477965595.3,286047968.7,N,0.0,0.0
